Churchill Falls Airport

Jump to: basic info | weather | frequencies | runways | comments

Related pages: nearby airports | nearby navaids | notams | map

Basic information (top)

Codes: ZUM CZUM
Location: lon 53.561901, lat -64.106400, elev 1,442 ft / 440 m msl
Status: small_airport
Scheduled airline service: yes
Links: Wikipedia Mobile

Weather (top)

Current conditions (rec'd 2015/02/27 16:00Z):

CZUM 271600Z AUTO 24006KT 200V290 9SM OVC025 M23/M30 A2967 RMK SLP103

Airport forecast (rec'd 2015/02/27 14:45Z):

TAF CZUM 271341Z 2714/2802 26006KT P6SM FEW030 
     FM271900 27010G20KT P6SM SCT040 
      TEMPO 2719/2802 5SM -SN BKN020 
      RMK FCST BASED ON AUTO OBS. NXT FCST BY 272000Z

Frequencies (top)

Verify before use: may be inaccurate or out of date.

ATF: 123.5 MHz (ATF)
AWOS: 122.55 MHz (AWOS)
CNTR: 126.025 MHz (GANDER CNTR)
RCO: 123.25 MHz (HALIFAX RDO)

Runways (top)

13/31: 5,500 x 150 ft (1,676 x 46 m) — paved — lighted

Latest comments (top)

churchill falls airport: no phone number [read]

More... (top)

See also NOTAMs and nearby airports and navaids, or visit the Churchill Falls Airport page at the main OurAirports website..